Location: San Vito
(41.8833°N, 12.9833°E)
Time: 15:57:57
(UTC+00:00)

Cosmos 1980 Rocket - Pass Details

Date: 17 November 2019
Orbit: 828 x 851 km, 71.0° (Epoch: 11 December)

Event Time Altitude Azimuth Distance (km) Brightness Sun altitude
Exits shadow 03:19:58 75° 114° (ESE) 880 2.2 -29.6°
Drops below altitude 10° 03:25:16 10° 153° (SSE) 2,462 4.9 -28.6°
Sets 03:27:42 0° 155° (SSE) 3,390 5.7 -28.2°
